Погода в Трубникове

Россия / Рязанская область     54°28′50″N   39°50′13″E
темп.,
°C
ветер,
м/с
пор.,
м/с
влажн.,
%
обл.,
%
осадки,
мм/ч
давл.,
гПа
погр.,
м
18 апреля, вс
вс1800:00+10юв2583100 0.4 1017313
03:00+8ююз4689100 0.9 1018387
06:00+7всв1188100 3.2 1018163
09:00+7всв3388100 3.4 1019355
12:00+9св437859 0.1 1019621
15:00+11св566980 0.3 1019990
18:00+9всв597899 0.4 1020649
21:00+7всв5986100 0.5 1020444
19 апреля, пн
пн1900:00+7всв5988100 2.8 1020345
03:00+7всв61187100 4.8 1021684
06:00+6всв6991100 0.3 1021929
09:00+4всв71293100 1.1 1021813
12:00+3всв71396100 2.0 1022754
15:00+3всв71396100 2.7 1022860
18:00+3всв81597100 1.9 1022824
21:00+3всв71497100 3.6 1022768
20 апреля, вт
вт2000:00+3в71497100 3.8 1021802
03:00+4в71394100 4.1 1020616
06:00+4в71394100 0.1 1020594
09:00+5в71291100 0.2 1021614
12:00+5в71293100 0.4 1020707
15:00+5в81491100 0.9 1018723
18:00+7в81682100 0.3 10151050
21:00+6в112085100 2.9 10111110
21 апреля, ср
ср2100:00+5вюв122292100 10.6 10071258
03:00+7вюв111990100 11.3 1004975
06:00+7юв101792100 0.0 1003966
09:00+8ююв91588100 0.4 10031299
12:00+5ююз81491100 1.6 10051005
15:00+6ююз81381100 1.7 10071253
18:00+6ююз81382100 0.1 10101318
21:00+5юз71282100 0.1 1014855
22 апреля, чт
чт2200:00+5ююз61186100 0.0 1016534
03:00+5ююз51083100 0.1 1017310
06:00+5ююз4984100 0.0 1019238
09:00+9ююз576696 0.1 10201032
12:00+11ююз565482 0.1 10211845
15:00+12ююз465293 0.1 10211748
18:00+11ю487259 0.0 1022415
21:00+8ю49845 0.0 1023167